| time (UTC) | temp C | wind direction | speed KPH | gust KPH | rain 1hr cm | rain 24hr cm | rain mn cm | humidity % | barometer mb |
| 20260506022726 | 5 | 299 | 24.1 | 27.4 | 0.00 | 0.00 | 0.00 | 74 | 1011.4 |
| 20260506020725 | 5 | 297 | 22.5 | 24.1 | 0.00 | 0.00 | 0.00 | 75 | 1011.2 |
| 20260506014726 | 5 | 294 | 24.1 | 25.7 | 0.00 | 0.00 | 0.00 | 74 | 1011.2 |
| 20260506012725 | 4 | 289 | 25.7 | 29.0 | 0.00 | 0.00 | 0.00 | 77 | 1011.0 |
| 20260506010726 | 4 | 288 | 27.4 | 32.2 | 0.00 | 0.00 | 0.00 | 73 | 1010.7 |
| 20260506004725 | 4 | 286 | 27.4 | 30.6 | 0.00 | 0.00 | 0.00 | 71 | 1010.5 |
| 20260506002726 | 5 | 276 | 22.5 | 25.7 | 0.00 | 0.00 | 0.00 | 71 | 1010.4 |
| 20260506000726 | 5 | 274 | 20.9 | 25.7 | 0.00 | 0.00 | 0.00 | 75 | 1010.3 |
| 20260505234725 | 5 | 266 | 25.7 | 29.0 | 0.00 | 0.00 | 0.00 | 72 | 1010.2 |
| 20260505232726 | 5 | 258 | 25.7 | 29.0 | 0.00 | 0.00 | 0.00 | 73 | 1010.0 |
| 20260505230726 | 5 | 234 | 19.3 | 24.1 | 0.00 | 0.00 | 0.00 | 80 | 1010.0 |
| 20260505224725 | 5 | 229 | 17.7 | 19.3 | 0.00 | 0.00 | 0.00 | 82 | 1010.1 |
| 20260505222725 | 5 | 217 | 14.5 | 16.1 | 0.00 | 0.00 | 0.00 | 76 | 1010.0 |
| 20260505220725 | 5 | 213 | 11.3 | 12.9 | 0.00 | 0.00 | 0.00 | 71 | 1010.0 |
| 20260505214726 | 5 | 213 | 12.9 | 14.5 | 0.00 | 0.00 | 0.00 | 76 | 1009.9 |
| 20260505212725 | 5 | 226 | 12.9 | 14.5 | 0.00 | 0.00 | 0.00 | 75 | 1009.9 |
| 20260505210724 | 5 | 232 | 11.3 | 14.5 | 0.00 | 0.00 | 0.00 | 77 | 1009.8 |
| 20260505204725 | 5 | 219 | 17.7 | 19.3 | 0.00 | 0.00 | 0.00 | 76 | 1009.5 |
| 20260505202726 | 5 | 212 | 17.7 | 17.7 | 0.00 | 0.00 | 0.00 | 74 | 1009.3 |
| 20260505200724 | 5 | 210 | 19.3 | 20.9 | 0.00 | 0.00 | 0.00 | 71 | 1009.3 |
| 20260505194724 | 5 | 202 | 19.3 | 20.9 | 0.00 | 0.00 | 0.00 | 67 | 1009.1 |
| 20260505192725 | 4 | 200 | 19.3 | 24.1 | 0.00 | 0.00 | 0.00 | 69 | 1009.1 |
| 20260505190724 | 5 | 249 | 20.9 | 27.4 | 0.00 | 0.00 | 0.00 | 66 | 1009.5 |
| 20260505184724 | 5 | 291 | 43.5 | 53.1 | 0.00 | 0.00 | 0.00 | 70 | 1008.9 |
| 20260505182724 | 5 | 262 | 16.1 | 19.3 | 0.00 | 0.00 | 0.00 | 81 | 1009.0 |
| 20260505180724 | 5 | 231 | 16.1 | 17.7 | 0.00 | 0.00 | 0.00 | 81 | 1008.6 |
| 20260505174724 | 5 | 219 | 17.7 | 20.9 | 0.00 | 0.00 | 0.00 | 77 | 1008.5 |
| 20260505172723 | 5 | 211 | 22.5 | 25.7 | 0.00 | 0.00 | 0.00 | 75 | 1008.2 |
| 20260505170723 | 5 | 211 | 20.9 | 22.5 | 0.00 | 0.00 | 0.00 | 72 | 1008.2 |
| 20260505164724 | 5 | 210 | 20.9 | 24.1 | 0.00 | 0.00 | 0.00 | 74 | 1008.3 |
| 20260505162724 | 5 | 205 | 22.5 | 24.1 | 0.00 | 0.00 | 0.00 | 73 | 1008.2 |
| 20260505160723 | 5 | 204 | 19.3 | 20.9 | 0.00 | 0.00 | 0.00 | 72 | 1008.2 |
| 20260505152723 | 5 | 200 | 12.9 | 14.5 | 0.00 | 0.00 | 0.00 | 68 | 1008.2 |
| 20260505150723 | 5 | 188 | 6.4 | 8.0 | 0.00 | 0.00 | 0.00 | 62 | 1008.3 |
| 20260505124722 | 5 | 357 | 17.7 | 19.3 | 0.00 | 0.00 | 0.00 | 67 | 1007.4 |
| 20260505122723 | 5 | 348 | 19.3 | 24.1 | 0.00 | 0.00 | 0.00 | 70 | 1007.2 |
| 20260505120723 | 4 | 341 | 24.1 | 27.4 | 0.00 | 0.00 | 0.00 | 73 | 1007.0 |
| 20260505114723 | 5 | 336 | 22.5 | 25.7 | 0.00 | 0.00 | 0.00 | 70 | 1006.9 |
| 20260505112723 | 5 | 338 | 25.7 | 30.6 | 0.00 | 0.00 | 0.00 | 68 | 1006.8 |
| 20260505110722 | 5 | 330 | 29.0 | 32.2 | 0.00 | 0.00 | 0.00 | 69 | 1006.6 |
| 20260505100722 | 4 | 328 | 27.4 | 29.0 | 0.00 | 0.00 | 0.00 | 73 | 1006.3 |
| 20260505094722 | 4 | 323 | 27.4 | 32.2 | 0.00 | 0.00 | 0.00 | 71 | 1006.1 |
| 20260505092722 | 4 | 317 | 27.4 | 32.2 | 0.00 | 0.00 | 0.00 | 69 | 1005.9 |
| 20260505090722 | 4 | 314 | 29.0 | 33.8 | 0.00 | 0.00 | 0.00 | 72 | 1005.7 |
| 20260505084723 | 4 | 314 | 33.8 | 38.6 | 0.00 | 0.00 | 0.00 | 70 | 1005.3 |
| 20260505082722 | 4 | 313 | 33.8 | 37.0 | 0.00 | 0.00 | 0.00 | 70 | 1005.1 |
| 20260505080722 | 4 | 304 | 30.6 | 37.0 | 0.00 | 0.00 | 0.00 | 70 | 1005.0 |
| 20260505074721 | 4 | 301 | 25.7 | 29.0 | 0.00 | 0.00 | 0.00 | 75 | 1005.0 |
| 20260505072722 | 4 | 292 | 25.7 | 30.6 | 0.00 | 0.00 | 0.00 | 75 | 1004.8 |
| 20260505070721 | 4 | 286 | 29.0 | 32.2 | 0.00 | 0.00 | 0.00 | 80 | 1004.6 |
| 20260505064721 | 4 | 286 | 25.7 | 29.0 | 0.00 | 0.00 | 0.00 | 84 | 1004.6 |
| 20260505062721 | 4 | 295 | 22.5 | 24.1 | 0.00 | 0.00 | 0.00 | 85 | 1004.3 |
| 20260505060722 | 3 | 299 | 22.5 | 25.7 | 0.00 | 0.00 | 0.00 | 85 | 1004.3 |
| 20260505054721 | 3 | 294 | 25.7 | 30.6 | 0.00 | 0.00 | 0.00 | 85 | 1004.2 |
| 20260505052722 | 3 | 293 | 27.4 | 32.2 | 0.00 | 0.00 | 0.00 | 89 | 1004.0 |
| 20260505050721 | 3 | 296 | 25.7 | 30.6 | 0.00 | 0.00 | 0.00 | 87 | 1003.8 |
| 20260505040721 | 3 | 311 | 22.5 | 27.4 | 0.00 | 0.00 | 0.00 | 90 | 1003.3 |
| 20260505034722 | 3 | 317 | 24.1 | 27.4 | 0.00 | 0.00 | 0.00 | 92 | 1003.0 |
| 20260505032721 | 3 | 335 | 27.4 | 30.6 | 0.00 | 0.00 | 0.00 | 91 | 1002.8 |
| 20260505030721 | 3 | 349 | 35.4 | 40.2 | 0.00 | 0.00 | 0.00 | 91 | 1002.4 |
| 20260505024721 | 3 | 356 | 41.8 | 48.3 | 0.00 | 0.00 | 0.00 | 89 | 1001.9 |